Precipitable_Water
1.28 1.26 1.21 1.19 1.18 1.17 1.15 1.14 1.16 1.19 1.25 1.30 1.28 1.28 1.28 1.31 1.40 1.43 1.45 1.50 1.52 1.49 1.48 1.46 1.43 1.35 1.29 1.25 1.22 1.20 1.15 1.09 1.07 1.11 1.12 1.12 1.11 1.12 1.12 1.14 1.16 1.16
1.29 1.29 1.27 1.23 1.20 1.21 1.20 1.20 1.20 1.23 1.26 1.30 1.31 1.32 1.34 1.36 1.39 1.44 1.47 1.47 1.49 1.47 1.48 1.45 1.39 1.34 1.28 1.25 1.23 1.18 1.15 1.11 1.07 1.16 1.15 1.15 1.13 1.14 1.13 1.15 1.15 1.19
1.31 1.30 1.28 1.23 1.18 1.16 1.17 1.20 1.24 1.28 1.30 1.33 1.37 1.37 1.34 1.38 1.40 1.46 1.49 1.48 1.45 1.45 1.45 1.42 1.37 1.34 1.30 1.26 1.24 1.19 1.15 1.12 1.09 1.15 1.17 1.15 1.17 1.15 1.16 1.17 1.15 1.16
1.33 1.31 1.27 1.24 1.23 1.20 1.21 1.20 1.24 1.29 1.34 1.35 1.34 1.36 1.36 1.38 1.42 1.45 1.47 1.49 1.44 1.42 1.40 1.40 1.38 1.36 1.33 1.29 1.26 1.21 1.18 1.15 1.12 1.15 1.15 1.17 1.19 1.19 1.19 1.19 1.18 1.17
1.34 1.33 1.32 1.29 1.27 1.26 1.25 1.22 1.21 1.25 1.28 1.30 1.35 1.37 1.36 1.37 1.40 1.42 1.45 1.46 1.44 1.38 1.36 1.37 1.38 1.37 1.36 1.33 1.29 1.23 1.22 1.16 1.14 1.15 1.14 1.14 1.18 1.19 1.20 1.21 1.16 1.13
1.42 1.40 1.36 1.32 1.29 1.26 1.24 1.22 1.21 1.23 1.27 1.31 1.33 1.36 1.34 1.37 1.37 1.38 1.42 1.41 1.42 1.37 1.34 1.35 1.36 1.37 1.38 1.36 1.31 1.26 1.23 1.16 1.13 1.15 1.14 1.13 1.16 1.21 1.21 1.21 1.18 1.12
1.38 1.40 1.39 1.39 1.35 1.33 1.27 1.23 1.21 1.24 1.28 1.31 1.36 1.33 1.34 1.33 1.34 1.37 1.40 1.40 1.38 1.35 1.32 1.32 1.33 1.34 1.38 1.37 1.31 1.25 1.21 1.15 1.12 1.12 1.11 1.12 1.15 1.16 1.20 1.21 1.21 1.16
1.41 1.44 1.44 1.41 1.35 1.32 1.27 1.23 1.22 1.22 1.26 1.32 1.29 1.31 1.35 1.32 1.33 1.38 1.41 1.40 1.36 1.32 1.32 1.33 1.34 1.35 1.37 1.38 1.31 1.22 1.16 1.13 1.08 1.08 1.09 1.10 1.13 1.13 1.15 1.21 1.24 1.21
1.46 1.45 1.43 1.39 1.34 1.29 1.24 1.22 1.21 1.21 1.27 1.26 1.26 1.29 1.35 1.34 1.34 1.38 1.41 1.39 1.34 1.30 1.30 1.30 1.32 1.34 1.36 1.35 1.31 1.24 1.16 1.10 1.07 1.05 1.06 1.08 1.10 1.12 1.12 1.17 1.22 1.23
1.40 1.40 1.39 1.36 1.29 1.26 1.22 1.21 1.22 1.21 1.25 1.26 1.27 1.31 1.30 1.33 1.37 1.39 1.42 1.38 1.32 1.29 1.28 1.28 1.29 1.32 1.33 1.35 1.32 1.28 1.22 1.15 1.09 1.06 1.08 1.10 1.11 1.11 1.14 1.18 1.20 1.23
1.39 1.39 1.36 1.33 1.29 1.27 1.23 1.23 1.22 1.22 1.24 1.24 1.28 1.29 1.31 1.33 1.36 1.41 1.40 1.36 1.30 1.27 1.27 1.27 1.29 1.30 1.30 1.32 1.34 1.33 1.28 1.23 1.17 1.11 1.09 1.10 1.13 1.14 1.17 1.20 1.22 1.23
1.39 1.39 1.35 1.33 1.32 1.29 1.26 1.25 1.24 1.23 1.22 1.25 1.28 1.28 1.32 1.34 1.34 1.37 1.36 1.31 1.30 1.30 1.30 1.31 1.32 1.32 1.29 1.29 1.31 1.33 1.32 1.29 1.25 1.19 1.14 1.12 1.14 1.17 1.18 1.23 1.25 1.24
1.39 1.38 1.39 1.39 1.37 1.34 1.33 1.30 1.27 1.24 1.23 1.21 1.27 1.29 1.30 1.30 1.33 1.33 1.34 1.33 1.31 1.32 1.32 1.32 1.33 1.33 1.31 1.31 1.33 1.34 1.35 1.32 1.29 1.27 1.23 1.19 1.18 1.20 1.21 1.24 1.28 1.29
1.40 1.43 1.45 1.45 1.45 1.43 1.37 1.33 1.30 1.28 1.25 1.26 1.29 1.28 1.28 1.29 1.30 1.30 1.31 1.33 1.32 1.33 1.35 1.37 1.36 1.35 1.34 1.35 1.37 1.38 1.38 1.37 1.35 1.33 1.31 1.27 1.24 1.26 1.27 1.25 1.27 1.31
1.44 1.48 1.50 1.50 1.49 1.46 1.40 1.35 1.32 1.30 1.30 1.29 1.28 1.27 1.29 1.29 1.32 1.33 1.31 1.30 1.32 1.33 1.35 1.37 1.36 1.35 1.37 1.38 1.39 1.40 1.41 1.40 1.39 1.39 1.40 1.37 1.33 1.32 1.33 1.29 1.27 1.30
1.47 1.49 1.49 1.51 1.51 1.46 1.43 1.40 1.36 1.34 1.32 1.29 1.28 1.28 1.27 1.29 1.32 1.33 1.32 1.29 1.28 1.31 1.34 1.36 1.35 1.37 1.39 1.43 1.45 1.44 1.44 1.45 1.46 1.47 1.49 1.49 1.45 1.41 1.39 1.34 1.29 1.30
1.48 1.48 1.50 1.48 1.47 1.49 1.48 1.43 1.38 1.36 1.33 1.30 1.29 1.29 1.26 1.28 1.31 1.30 1.30 1.30 1.29 1.30 1.30 1.33 1.35 1.38 1.42 1.44 1.47 1.50 1.50 1.50 1.50 1.52 1.56 1.58 1.57 1.53 1.47 1.42 1.34 1.32
1.46 1.48 1.49 1.47 1.49 1.48 1.48 1.46 1.43 1.38 1.33 1.30 1.28 1.26 1.26 1.30 1.29 1.29 1.30 1.31 1.32 1.32 1.32 1.32 1.35 1.40 1.44 1.47 1.50 1.52 1.55 1.56 1.57 1.58 1.61 1.63 1.64 1.63 1.60 1.55 1.43 1.35
1.48 1.49 1.49 1.50 1.50 1.50 1.53 1.52 1.44 1.36 1.30 1.27 1.23 1.24 1.27 1.26 1.25 1.29 1.29 1.32 1.32 1.31 1.31 1.34 1.37 1.43 1.47 1.49 1.51 1.54 1.57 1.61 1.63 1.64 1.64 1.65 1.66 1.66 1.66 1.64 1.57 1.44
1.47 1.47 1.47 1.49 1.53 1.55 1.56 1.51 1.44 1.33 1.27 1.26 1.26 1.28 1.26 1.23 1.26 1.26 1.28 1.30 1.31 1.31 1.32 1.36 1.39 1.45 1.48 1.50 1.53 1.56 1.60 1.64 1.66 1.67 1.67 1.67 1.66 1.68 1.71 1.71 1.68 1.60
1.46 1.46 1.45 1.49 1.55 1.57 1.56 1.51 1.44 1.37 1.32 1.28 1.25 1.22 1.21 1.20 1.22 1.24 1.26 1.29 1.31 1.34 1.35 1.37 1.41 1.47 1.49 1.51 1.54 1.58 1.62 1.66 1.69 1.71 1.69 1.68 1.71 1.73 1.75 1.78 1.79 1.71
1.44 1.45 1.48 1.53 1.57 1.59 1.56 1.50 1.46 1.40 1.32 1.31 1.27 1.25 1.27 1.29 1.30 1.29 1.25 1.27 1.32 1.36 1.36 1.36 1.43 1.49 1.51 1.53 1.56 1.60 1.64 1.67 1.70 1.70 1.68 1.69 1.72 1.76 1.78 1.81 1.83 1.82
1.46 1.47 1.50 1.55 1.59 1.57 1.53 1.51 1.47 1.43 1.40 1.39 1.29 1.24 1.21 1.23 1.23 1.25 1.29 1.31 1.32 1.35 1.35 1.37 1.44 1.50 1.52 1.54 1.58 1.63 1.65 1.66 1.70 1.69 1.69 1.71 1.76 1.86 1.85 1.84 1.82 1.84
1.52 1.54 1.54 1.58 1.60 1.56 1.52 1.53 1.56 1.54 1.48 1.45 1.32 1.25 1.21 1.21 1.25 1.28 1.33 1.34 1.33 1.35 1.38 1.38 1.44 1.51 1.54 1.57 1.62 1.65 1.66 1.67 1.70 1.70 1.68 1.77 1.81 1.85 1.86 1.87 1.86 1.84
1.50 1.57 1.59 1.60 1.59 1.57 1.59 1.59 1.60 1.56 1.55 1.55 1.45 1.36 1.27 1.27 1.30 1.29 1.30 1.35 1.38 1.39 1.44 1.44 1.47 1.53 1.56 1.60 1.64 1.67 1.68 1.71 1.73 1.72 1.72 1.80 1.77 1.77 1.82 1.84 1.78 1.79
1.50 1.51 1.54 1.58 1.58 1.60 1.65 1.66 1.70 1.70 1.66 1.58 1.50 1.43 1.35 1.34 1.34 1.33 1.31 1.34 1.40 1.43 1.46 1.49 1.50 1.55 1.58 1.63 1.66 1.67 1.69 1.73 1.77 1.68 1.64 1.72 1.76 1.74 1.71 1.71 1.72 1.71
Wind_Speed
25 24 24 23 23 22 22 21 20 20 19 18 17 17 17 16 16 15 15 14 13 12 12 11 11 10 9 9 9 9 9 9 9 10 10 10 11 11 11 12 12 12
26 25 24 24 24 23 23 22 22 21 20 19 18 18 17 17 16 16 15 14 14 13 13 12 11 11 10 10 10 10 9 10 9 10 10 10 11 11 12 12 12 12
27 26 25 25 24 24 24 23 22 22 21 20 20 19 18 17 17 17 16 15 14 14 13 12 12 11 11 11 11 10 10 10 10 10 10 11 11 12 12 12 13 13
28 27 27 26 25 25 25 24 23 23 22 21 21 20 19 18 18 17 17 16 15 15 14 13 12 12 12 12 11 11 10 10 10 10 11 11 12 12 13 13 13 13
28 28 27 26 26 25 25 25 24 24 23 22 22 21 20 19 19 18 18 17 16 15 14 14 13 13 12 12 12 11 11 11 11 11 11 12 13 13 14 14 14 14
28 28 28 27 26 26 25 26 25 25 24 23 23 22 22 21 20 19 19 18 17 16 15 15 14 13 13 12 12 12 12 12 12 12 12 13 13 14 14 15 14 14
28 28 28 27 27 26 26 26 26 25 25 24 24 24 23 22 21 21 20 19 18 18 17 16 15 14 13 13 13 13 13 13 13 13 13 14 14 15 15 15 15 15
29 28 28 28 27 27 26 26 26 26 26 25 25 25 24 23 23 22 21 20 19 19 18 17 16 15 15 14 14 14 14 14 14 14 14 14 15 15 15 15 15 16
29 28 28 28 27 27 27 27 26 26 26 26 26 25 25 24 24 23 22 21 20 19 18 17 17 16 15 15 15 15 15 15 15 15 15 15 15 16 16 16 16 16
29 28 28 28 27 27 27 27 27 27 27 27 26 26 26 25 24 24 23 22 21 20 19 18 18 17 16 16 16 16 16 16 16 15 16 16 16 16 16 16 16 17
28 27 27 27 26 26 26 26 27 27 27 27 27 26 26 26 25 24 23 23 22 21 20 19 19 18 17 17 17 16 16 16 16 16 16 16 16 17 17 17 17 17
27 27 26 26 26 26 26 26 26 27 27 27 27 27 26 26 26 25 24 24 23 22 21 20 20 19 19 18 18 17 17 17 17 17 17 17 17 17 17 17 17 17
27 27 26 25 25 25 26 26 26 27 27 27 28 28 27 27 26 26 25 25 24 23 22 21 21 20 20 19 19 18 17 17 17 17 17 17 18 18 18 18 18 18
27 27 26 26 25 25 26 26 26 27 27 28 28 28 28 28 27 27 26 25 24 24 23 22 22 21 21 20 20 19 19 18 18 18 18 19 19 19 19 19 19 19
28 27 27 26 26 26 26 26 27 27 27 28 28 28 28 28 28 27 27 26 25 24 24 23 23 22 22 21 21 20 20 19 19 19 19 20 20 20 20 20 20 20
28 28 27 27 27 27 26 26 27 27 28 28 29 29 29 28 28 28 27 27 26 25 25 24 24 23 23 22 22 22 21 20 20 20 21 21 21 21 21 21 20 20
30 29 29 29 28 28 27 27 27 28 28 29 29 29 29 29 29 29 28 28 27 26 26 25 24 24 23 23 23 23 22 22 21 22 22 22 22 22 22 22 21 21
31 31 30 30 30 29 29 28 28 29 29 29 30 30 30 30 30 29 29 28 28 27 27 26 25 24 24 23 23 24 23 23 23 23 23 23 24 24 23 23 22 22
32 31 32 31 31 31 30 29 29 29 30 30 30 30 30 30 30 30 30 29 29 28 28 27 26 25 24 24 24 24 25 24 24 24 24 24 25 25 25 24 23 23
33 33 33 33 32 32 32 31 31 31 30 30 30 31 31 31 31 31 31 30 29 29 28 27 26 26 25 25 25 25 26 26 25 25 25 25 26 26 26 26 24 24
34 34 34 33 33 33 33 33 33 32 31 31 31 31 32 32 32 32 32 31 30 29 29 28 27 26 26 26 26 26 26 26 26 26 26 26 27 28 28 27 25 24
35 35 35 35 34 34 35 35 34 33 32 32 32 32 33 33 33 33 32 32 31 30 30 29 28 27 27 26 26 26 27 27 27 27 27 28 28 28 29 28 25 25
35 36 36 36 36 36 36 36 35 34 33 33 33 33 33 34 34 33 33 32 32 31 31 30 29 27 27 27 27 27 27 27 27 28 28 29 27 27 27 26 24 25
35 36 36 37 38 38 37 37 36 35 34 34 34 34 34 34 34 34 34 33 33 32 31 30 29 28 28 28 27 28 28 27 28 28 29 28 27 26 26 25 25 25
34 35 36 37 39 39 39 38 37 37 36 35 35 35 35 34 34 35 34 34 33 33 32 31 30 29 29 29 28 28 28 28 28 28 28 28 27 26 26 26 26 27
34 35 36 37 38 39 39 39 39 38 37 37 36 36 35 35 35 36 35 35 34 33 33 32 31 30 29 29 29 29 29 28 28 28 29 28 27 27 27 27 28 28
Wind_Direction
227 228 229 230 230 231 231 231 230 230 230 230 230 231 231 230 228 227 228 230 231 234 239 242 245 251 258 265 273 281 287 293 299 304 306 306 309 312 315 318 319 320
227 228 230 231 231 232 232 232 231 230 231 230 231 232 232 230 228 227 229 229 231 234 238 242 246 251 257 265 272 278 285 291 296 300 302 303 306 310 312 314 316 317
227 228 229 231 231 231 232 232 232 232 231 231 231 232 232 230 228 228 229 230 232 236 238 242 246 251 257 264 270 276 283 288 291 296 299 301 304 307 309 312 313 312
228 228 229 231 231 232 232 233 233 232 231 230 230 231 231 230 229 229 229 231 234 237 239 242 247 251 257 263 268 273 279 284 288 292 296 299 301 303 306 308 309 308
228 229 230 231 232 232 233 233 233 232 230 229 229 230 231 230 229 229 230 232 235 238 240 243 247 251 256 261 265 270 275 281 285 288 291 294 297 299 302 304 305 305
229 229 230 231 232 233 234 234 233 231 229 229 229 230 230 229 228 229 230 232 235 237 240 243 247 251 256 260 264 268 272 277 281 283 287 291 295 296 298 301 302 302
230 230 230 232 233 233 234 234 233 231 229 229 229 229 229 228 228 229 231 233 235 236 239 242 246 250 254 258 262 265 270 275 278 281 285 290 294 295 296 298 299 299
230 231 231 232 232 234 234 233 232 230 230 230 229 229 229 228 229 230 232 233 234 236 239 242 246 249 253 257 261 264 268 273 277 280 284 289 293 294 296 297 297 295
231 231 231 231 232 233 233 232 231 230 230 229 229 229 229 229 230 230 232 233 233 235 238 241 245 249 253 257 260 263 267 272 276 279 284 288 291 293 295 296 295 294
230 230 230 231 231 232 232 231 231 230 229 229 229 229 229 229 230 231 232 233 233 235 238 241 245 249 253 257 260 263 267 270 275 279 284 288 290 292 293 294 294 293
229 229 230 230 231 231 231 230 230 230 229 229 229 229 229 230 231 232 232 233 234 236 238 242 245 249 253 257 260 264 267 270 274 279 285 288 290 291 292 293 294 293
228 229 229 230 230 231 230 230 230 230 230 229 229 229 230 231 232 232 232 233 235 237 239 242 246 250 253 257 260 264 267 270 274 279 284 288 290 291 292 293 294 294
228 229 229 229 230 231 231 231 231 231 231 230 229 229 230 231 232 232 233 234 236 238 240 243 246 250 254 257 260 263 267 269 272 278 283 286 288 290 292 292 293 294
229 229 229 230 231 232 232 232 232 232 232 231 230 230 231 232 232 233 234 235 237 239 241 244 247 250 253 256 259 263 266 269 272 275 280 284 286 288 290 291 291 292
229 230 231 231 232 232 233 233 233 233 232 231 231 231 232 233 233 233 234 236 237 240 242 244 247 250 252 255 259 262 266 269 272 274 277 281 284 286 288 289 289 290
229 230 232 232 233 233 233 233 233 233 232 232 232 232 233 233 233 234 235 236 238 240 242 245 247 250 252 254 257 262 266 270 272 274 276 279 283 285 286 288 288 289
231 231 232 233 234 234 234 234 234 233 233 233 233 233 233 233 233 234 235 237 239 240 242 245 247 250 252 254 257 261 266 270 272 274 276 279 281 284 285 286 286 287
233 233 233 235 235 235 236 235 234 234 234 234 234 234 233 233 234 235 236 237 239 241 242 245 248 250 251 254 258 260 264 269 272 274 276 279 281 282 284 285 285 285
235 234 235 236 236 236 236 236 235 236 235 235 235 234 234 234 235 235 236 238 239 241 243 245 248 250 252 255 258 260 263 267 271 274 277 279 281 281 282 284 285 284
235 236 236 237 237 237 237 237 237 237 237 236 236 235 234 234 235 235 236 238 240 241 243 246 249 250 252 255 258 260 262 266 271 274 277 279 280 281 281 282 283 283
236 237 237 238 238 237 237 237 238 238 238 237 236 235 234 234 235 235 236 238 240 242 244 247 249 250 252 255 258 260 262 266 271 274 277 280 281 281 280 279 279 282
237 238 238 238 238 237 237 238 239 239 239 238 237 237 236 235 235 236 237 238 240 242 244 247 250 251 253 255 258 260 262 267 271 274 277 279 281 282 280 277 277 281
238 238 238 238 238 238 238 239 239 239 239 238 237 237 237 236 236 236 237 238 240 242 245 248 250 252 253 256 258 259 262 266 270 274 277 278 280 283 282 281 281 282
240 240 239 238 238 239 239 239 239 239 239 239 238 238 237 237 236 236 238 239 241 243 245 247 251 252 254 256 258 259 261 266 270 273 277 278 281 284 285 285 286 284
241 241 240 240 240 240 239 239 239 239 239 239 239 238 238 238 237 237 238 240 242 244 245 247 250 253 254 256 258 258 261 265 269 273 276 278 281 284 286 287 288 286
242 241 241 241 241 241 240 239 238 238 238 238 239 239 239 238 238 238 239 240 242 244 245 247 250 253 255 256 257 258 260 264 269 273 276 278 282 284 286 287 288 287